Mojave, CA

7:08 PM PST on December 13, 2019 (GMT -0800)
Mojave

Weather History for KMHV - May, 2019

Change the Weather History Date:

Wednesday, May 29, 2019

  Actual Average Record
Temperature  
Mean Temperature 68 °F -  
Max Temperature 82 °F 82 °F 101 °F (1984)
Min Temperature 53 °F 57 °F 42 °F (1971)
Cooling Degree Days 2    
Growing Degree Days 18 (Base 50)    
Moisture  
Dew Point 42 °F    
Average Humidity 43    
Maximum Humidity 67    
Minimum Humidity 17    
Precipitation  
Precipitation 0.00 in - - ()
Sea Level Pressure  
Sea Level Pressure 29.88 in    
Wind  
Wind Speed 8 mph (West)    
Max Wind Speed 18 mph    
Max Gust Speed 24 mph    
Visibility 10 miles    
Events      
Averages and records for this station are not official NWS values.
T = Trace of Precipitation, MM = Missing Value Source: NWS Daily Summary

Daily Weather History Graph

Daily Weather History Graph

Search for Another Location

Airport or City:

Astronomy

May. 29, 2019 Rise Set
Actual Time 5:40 AM PDT 7:59 PM PDT
Civil Twilight 5:11 AM PDT 8:28 PM PDT
Nautical Twilight 4:36 AM PDT 9:04 PM PDT
Astronomical Twilight 3:57 AM PDT 9:43 PM PDT
Moon 3:07 AM PDT (5/29) 3:25 PM PDT (5/29)
Length of Visible Light 15h 16m
Length of Day
14h 18m
Waning Crescent, 22% of the Moon is Illuminated
May 29
Waning Crescent
Jun 3
New
Jun 9
First Quarter
Jun 17
Full
Jun 25
Last Quarter

Hourly Weather History & Observations

Time (PDT) Temp. Dew Point Humidity Pressure Visibility Wind Dir Wind Speed Gust Speed Precip Events Conditions
12:00 AM 60.8 °F 41.0 °F 48% 29.89 in 10.0 mi WNW 17.3 mph - N/A   Clear
12:20 AM 60.8 °F 41.0 °F 48% 29.89 in 10.0 mi WNW 15.0 mph - N/A   Clear
12:40 AM 60.8 °F 41.0 °F 48% 29.89 in 10.0 mi Variable 3.5 mph - N/A   Clear
1:00 AM 59.0 °F 41.0 °F 51% 29.89 in 10.0 mi SSW 5.8 mph - N/A   Clear
1:20 AM 60.8 °F 39.2 °F 45% 29.89 in 10.0 mi NNE 8.1 mph - N/A   Clear
1:40 AM 59.0 °F 41.0 °F 51% 29.88 in 10.0 mi Variable 3.5 mph - N/A   Clear
2:00 AM 59.0 °F 41.0 °F 51% 29.89 in 10.0 mi Calm Calm - N/A   Clear
2:20 AM 57.2 °F 41.0 °F 55% 29.89 in 10.0 mi North 4.6 mph - N/A   Clear
2:40 AM 55.4 °F 42.8 °F 63% 29.89 in 10.0 mi North 8.1 mph - N/A   Clear
3:00 AM 55.4 °F 42.8 °F 63% 29.88 in 10.0 mi North 5.8 mph - N/A   Clear
3:20 AM 55.4 °F 41.0 °F 58% 29.88 in 10.0 mi NW 3.5 mph - N/A   Clear
3:40 AM 55.4 °F 41.0 °F 58% 29.88 in 10.0 mi WSW 4.6 mph - N/A   Clear
4:00 AM 53.6 °F 42.8 °F 67% 29.88 in 10.0 mi WSW 4.6 mph - N/A   Clear
4:20 AM 53.6 °F 42.8 °F 67% 29.88 in 10.0 mi West 4.6 mph - N/A   Clear
4:40 AM 55.4 °F 42.8 °F 63% 29.88 in 10.0 mi Calm Calm - N/A   Clear
5:00 AM 53.6 °F 42.8 °F 67% 29.88 in 10.0 mi WSW 4.6 mph - N/A   Clear
5:20 AM 53.6 °F 42.8 °F 67% 29.88 in 10.0 mi West 6.9 mph - N/A   Clear
5:40 AM 53.6 °F 42.8 °F 67% 29.89 in 10.0 mi NW 3.5 mph - N/A   Clear
6:00 AM 53.6 °F 42.8 °F 67% 29.89 in 10.0 mi Calm Calm - N/A   Clear
6:20 AM 53.6 °F 42.8 °F 67% 29.89 in 10.0 mi Calm Calm - N/A   Clear
6:40 AM 55.4 °F 44.6 °F 67% 29.90 in 10.0 mi Calm Calm - N/A   Clear
7:00 AM 60.8 °F 44.6 °F 55% 29.90 in 10.0 mi NE 4.6 mph - N/A   Clear
7:20 AM 60.8 °F 42.8 °F 52% 29.90 in 10.0 mi Calm Calm - N/A   Clear
7:40 AM 60.8 °F 44.6 °F 55% 29.90 in 10.0 mi ESE 3.5 mph - N/A   Clear
8:00 AM 62.6 °F 42.8 °F 48% 29.91 in 10.0 mi SE 4.6 mph - N/A   Clear
8:20 AM 64.4 °F 42.8 °F 45% 29.91 in 10.0 mi ESE 3.5 mph - N/A   Clear
8:40 AM 64.4 °F 42.8 °F 45% 29.91 in 10.0 mi Calm Calm - N/A   Clear
9:00 AM 66.2 °F 42.8 °F 43% 29.92 in 10.0 mi Calm Calm - N/A   Clear
9:20 AM 68.0 °F 42.8 °F 40% 29.92 in 10.0 mi Calm Calm - N/A   Clear
9:40 AM 68.0 °F 41.0 °F 37% 29.91 in 10.0 mi Calm Calm - N/A   Clear
10:00 AM 69.8 °F 41.0 °F 35% 29.91 in 10.0 mi Calm Calm - N/A   Clear
10:20 AM 69.8 °F 41.0 °F 35% 29.91 in 10.0 mi East 4.6 mph - N/A   Clear
10:40 AM 71.6 °F 41.0 °F 33% 29.91 in 10.0 mi NNE 4.6 mph - N/A   Clear
11:00 AM 73.4 °F 41.0 °F 31% 29.91 in 10.0 mi NE 8.1 mph - N/A   Clear
11:20 AM 73.4 °F 41.0 °F 31% 29.91 in 10.0 mi ENE 9.2 mph - N/A   Clear
11:40 AM 75.2 °F 39.2 °F 27% 29.91 in 10.0 mi East 8.1 mph - N/A   Clear
12:00 PM 75.2 °F 39.2 °F 27% 29.91 in 10.0 mi NE 6.9 mph - N/A   Clear
12:20 PM 75.2 °F 37.4 °F 25% 29.90 in 10.0 mi Calm Calm - N/A   Clear
12:40 PM 77.0 °F 39.2 °F 26% 29.89 in 10.0 mi East 6.9 mph - N/A   Clear
1:00 PM 77.0 °F 37.4 °F 24% 29.89 in 10.0 mi Calm Calm - N/A   Clear
1:20 PM 78.8 °F 37.4 °F 23% 29.88 in 10.0 mi South 9.2 mph - N/A   Clear
1:40 PM - - N/A% 29.88 in - North - - N/A   Unknown
2:00 PM 78.8 °F 37.4 °F 23% 29.87 in 10.0 mi Variable 8.1 mph - N/A   Unknown
2:20 PM 80.6 °F 35.6 °F 20% 29.86 in 10.0 mi South 10.4 mph - N/A   Clear
2:40 PM 80.6 °F 35.6 °F 20% 29.86 in 10.0 mi Variable 4.6 mph - N/A   Clear
3:00 PM 82.4 °F 33.8 °F 17% 29.85 in 10.0 mi SSW 13.8 mph - N/A   Clear
3:20 PM 80.6 °F 33.8 °F 18% 29.84 in 10.0 mi SW 9.2 mph 17.3 mph N/A   Partly Cloudy
3:40 PM 80.6 °F 33.8 °F 18% 29.84 in 10.0 mi South 11.5 mph - N/A   Scattered Clouds
4:00 PM 82.4 °F 35.6 °F 19% 29.83 in 10.0 mi SW 11.5 mph 18.4 mph N/A   Mostly Cloudy
4:20 PM 82.4 °F 35.6 °F 19% 29.83 in 10.0 mi SW 18.4 mph - N/A   Partly Cloudy
4:40 PM 80.6 °F 35.6 °F 20% 29.83 in 10.0 mi SSW 13.8 mph 20.7 mph N/A   Clear
5:00 PM 82.4 °F 35.6 °F 19% 29.83 in 10.0 mi SW 16.1 mph 21.9 mph N/A   Clear
5:20 PM 80.6 °F 33.8 °F 18% 29.83 in 10.0 mi WSW 17.3 mph - N/A   Clear
5:40 PM 80.6 °F 35.6 °F 20% 29.83 in 10.0 mi SW 16.1 mph - N/A   Clear
6:00 PM 80.6 °F 44.6 °F 28% 29.83 in 10.0 mi West 13.8 mph 21.9 mph N/A   Clear
6:20 PM 77.0 °F 50.0 °F 39% 29.84 in 10.0 mi West 17.3 mph - N/A   Clear
6:40 PM 75.2 °F 50.0 °F 41% 29.84 in 10.0 mi West 15.0 mph - N/A   Clear
7:00 PM 75.2 °F 50.0 °F 41% 29.84 in 10.0 mi WNW 17.3 mph 24.2 mph N/A   Clear
7:20 PM 73.4 °F 50.0 °F 44% 29.85 in 10.0 mi West 16.1 mph 21.9 mph N/A   Clear
7:40 PM 71.6 °F 48.2 °F 43% 29.86 in 10.0 mi West 15.0 mph - N/A   Clear
8:00 PM 71.6 °F 48.2 °F 43% 29.86 in 10.0 mi West 17.3 mph 23.0 mph N/A   Clear
8:20 PM 69.8 °F 48.2 °F 46% 29.87 in 10.0 mi West 15.0 mph 21.9 mph N/A   Clear
8:40 PM 69.8 °F 48.2 °F 46% 29.87 in 10.0 mi West 15.0 mph 23.0 mph N/A   Clear
9:00 PM 68.0 °F 48.2 °F 49% 29.88 in 10.0 mi West 10.4 mph 18.4 mph N/A   Clear
9:20 PM 68.0 °F 48.2 °F 49% 29.89 in 10.0 mi WSW 11.5 mph - N/A   Clear
9:40 PM 68.0 °F 46.4 °F 46% 29.89 in 10.0 mi WSW 6.9 mph - N/A   Clear
10:00 PM 68.0 °F 48.2 °F 49% 29.90 in 10.0 mi WNW 10.4 mph - N/A   Clear
10:20 PM 68.0 °F 48.2 °F 49% 29.90 in 10.0 mi NW 17.3 mph - N/A   Clear
10:40 PM 68.0 °F 48.2 °F 49% 29.90 in 10.0 mi NW 15.0 mph - N/A   Clear
11:00 PM 68.0 °F 48.2 °F 49% 29.89 in 10.0 mi NNW 10.4 mph 16.1 mph N/A   Clear
11:20 PM 68.0 °F 48.2 °F 49% 29.90 in 10.0 mi NW 12.7 mph - N/A   Clear
11:40 PM 66.2 °F 48.2 °F 52% 29.90 in 10.0 mi South 5.8 mph 16.1 mph N/A   Clear